Regional Weather Roundup
Issued by NWS

Home | Current Version | Previous Version | Graphics & Text | Print | Product List | Glossary On
Versions: 1 2 3 4 5 6 7 8 9 10 11 12 13 14 15 16 17 18 19 20 21 22 23 24 25 26 27 28 29 30 31 32 33 34 35 36 37 38 39 40 41 42 43 44 45 46 47 48 49 50
000
ASUS43 KLOT 240603
RWRIL

ILLINOIS REGIONAL WEATHER ROUNDUP
NATIONAL WEATHER SERVICE CHICAGO/ROMEOVILLE IL
100 AM CDT TUE APR 24 2018

NOTE: "FAIR" INDICATES FEW OR NO CLOUDS BELOW 12,000 FEET WITH NO
SIGNIFICANT WEATHER AND/OR OBSTRUCTIONS TO VISIBILITY.

* THESE STATIONS ARE NOT UNDER NWS QUALITY CONTROL. THEY ALSO MAY NOT
  REPORT WEATHER SUCH AS PRECIPITATION OR FOG.

ILZ001-002-007-009-015-016-024-240700-
NORTHWEST ILLINOIS

CITY           SKY/WX    TMP DP  RH WIND       PRES   REMARKS
MOLINE         FAIR      55  39  54 E10       30.07R
6HR MIN TEMP:  52; 6HR MAX TEMP:  70;

STERLING*      FAIR      52  33  48 E7        30.09S
SAVANNA*       FAIR      50  32  50 NE6       30.09S
$$

ILZ003-004-008-010-011-017-018-240700-
NORTH CENTRAL ILLINOIS

CITY           SKY/WX    TMP DP  RH WIND       PRES   REMARKS
ROCKFORD       CLOUDY    52  25  35 E8        30.11F
6HR MIN TEMP:  51; 6HR MAX TEMP:  65;

FREEPORT*      FAIR      47  32  56 E6        30.11F
ROCHELLE*      CLOUDY    51  31  45 NE6       30.09S
DE KALB*       CLOUDY    50  32  49 NE6       30.09F
PERU*          CLOUDY    54  37  52 NE8       30.08S
$$

ILZ005-006-012>014-019>023-240700-
NORTHEAST ILLINOIS

CITY           SKY/WX    TMP DP  RH WIND       PRES   REMARKS
CHICAGO-OHARE  CLOUDY    49  31  49 N6        30.08F
6HR MIN TEMP:  48; 6HR MAX TEMP:  56; 6HR PCP: TRACE;

CHICAGO-MIDWAY DRIZZLE   52  37  56 NE5       30.08F
6HR MIN TEMP:  50; 6HR MAX TEMP:  55; 6HR PCP: TRACE;

AURORA         CLOUDY    52  29  41 NE8       30.08S
6HR MIN TEMP:  51; 6HR MAX TEMP:  62; 6HR PCP: TRACE;

LANSING*       LGT RAIN  46  44  91 CALM      30.08F
JOLIET*        CLOUDY    50  45  81 CALM      30.08S
WAUKEGAN       CLOUDY    46  31  55 NW5       30.08F
6HR MIN TEMP:  45; 6HR MAX TEMP:  55;

DUPAGE AIRPORT CLOUDY    51  30  44 NE6       30.08S
6HR MIN TEMP:  50; 6HR MAX TEMP:  60; 6HR PCP: TRACE;

KANKAKEE*      CLOUDY    50  49  97 NE7       30.06F FOG
WHEELING       CLOUDY    49  31  49 N3        30.10F
6HR MIN TEMP:  48; 6HR MAX TEMP:  56;

MORRIS*        CLOUDY    49  40  70 E5        30.06F
ROMEOVILLE*    CLOUDY    46  42  85 E6        30.08S
NORTHERLY ISL    N/A     46  34  62 N3          N/A
$$

LMZ740>746-240700-
SOUTHERN LAKE MICHIGAN

STATION/POSITION SKY/WX   TEMP    WIND        PRES    VSBY  WAVE
                          AIR SEA DIR/SP/G                  HT/PER
                          (F)     (DEG/KT/KT) (MB)    (MI)  (FT/S)
HARRISON CRIB              44     340/  8/  9   N/A
BURNHAM HARBOR             46     340/  5       N/A
CALUMET HARBOR             44     330/  6/  7 1018.4F
BURNS HARBOR               43      40/  4/  4 1019.3F
MICHIGAN CITY              51      80/  3/  4   N/A
ST. JOSEPH                 50 42  260/  2/  4 1019.6F         2/ 4
$$

ILZ025>027-034>036-040-047-049-050-058-095>099-240700-
WEST-CENTRAL ILLINOIS

CITY           SKY/WX    TMP DP  RH WIND       PRES   REMARKS
QUINCY         CLOUDY    52  50  93 NE6       30.02F
GALESBURG*     MOCLDY    56  54  91 N6        30.07S
MACOMB*        CLOUDY    51  49  94 NE7       30.06S
JACKSONVILLE*  DRIZZLE   54  53  96 N7        30.02S
PITTSFIELD*    CLOUDY    56  55  95 NE5       30.03S
$$

ILZ028>032-037-038-041>044-048-051>054-059>061-240700-
CENTRAL ILLINOIS

CITY           SKY/WX    TMP DP  RH WIND       PRES   REMARKS
PONTIAC        CLOUDY    49  48  99 NE13      30.06S FOG
BLOOMINGTON    LGT RAIN  51  50  96 NE15      30.03F VSB 1/2
DECATUR        CLOUDY    54  54 100 NE12      29.99F FOG
PEORIA         LGT RAIN  53  50  89 NE7       30.05S
6HR MIN TEMP:  53; 6HR MAX TEMP:  66; 6HR PCP:  0.01;

LACON*         CLOUDY    51  42  71 N5        30.06S
LINCOLN*       CLOUDY    55  55 100 NE8       30.02S
SPRINGFIELD    CLOUDY    55  55 100 NE8       30.01S FOG
6HR MIN TEMP:  55; 6HR MAX TEMP:  59; 6HR PCP:  0.13;

TAYLORVILLE    CLOUDY    54  54  99 NE7       29.99F FOG
6HR MIN TEMP:  54; 6HR MAX TEMP:  55; 6HR PCP:  0.08;

$$

ILZ033-039-045-046-055>057-062-063-240700-
EAST-CENTRAL ILLINOIS

CITY           SKY/WX    TMP DP  RH WIND       PRES   REMARKS
CHAMPAIGN      CLOUDY    53  53 100 NE12      30.00F
DANVILLE*      CLOUDY    52  52  99 E7        29.99S
RANTOUL*       DRIZZLE   55  55  99 NE7       30.01F
MATTOON        CLOUDY    54  53  97 E6        29.97S FOG
PARIS*         MOCLDY    52  51  96 NE7       30.00S
$$

ILZ079-100>102-240700-
SOUTHWEST ILLINOIS

CITY           SKY/WX    TMP DP  RH WIND       PRES   REMARKS
CAHOKIA*       CLOUDY    56  54  93 N7        29.97S
SPARTA*        CLOUDY    56  56 100 N5        29.97S
$$

ILZ064>066-069>071-074>076-080>082-084>086-088>090-092>094-240700-
SOUTH-CENTRAL ILLINOIS

CITY           SKY/WX    TMP DP  RH WIND       PRES   REMARKS
CARBONDALE     CLOUDY    57  55  93 N7        29.94R
6HR MIN TEMP:  56; 6HR MAX TEMP:  58; 6HR PCP:  0.02;

CAIRO*         FAIR      54  54  98 N3        29.92S
EFFINGHAM*     CLOUDY    55  55 100 NE6       29.98S
MARION         MOCLDY    55  54  99 N5        29.94S FOG
MT. VERNON     CLOUDY    56  55  97 N6        29.95S
CENTRALIA*     CLOUDY    57  56  96 NE3       29.95S
SALEM*         CLOUDY    57  55  92 NE3       29.96S
METROPOLIS*    CLOUDY    54  53  99 CALM      29.92S
$$

ILZ067-068-072-073-078-083-087-091-240700-
SOUTHEAST ILLINOIS

CITY           SKY/WX    TMP DP  RH WIND       PRES   REMARKS
LAWRENCEVILLE  MOCLDY    54  52  93 MISG      29.96F
FLORA*         CLOUDY    57  55  95 NE5       29.96F
FAIRFIELD*     CLOUDY    55  55 100 CALM      29.94S
HARRISBURG*    FAIR      55  55 100 NE5       29.94S
ROBINSON*      FAIR      51  50  95 E6        29.98S
CARMI*         CLOUDY    56  56 100 N5        29.94S
$$

ABBREVIATIONS USED IN REMARKS
   TC - TEMPERATURE IN CELSIUS
  WCI - WIND CHILL INDEX
   HX - HEAT INDEX
  VSB - VISIBILITY
$$




USA.gov is the U.S. government's official web portal to all federal, state and local government web resources and services.